[[{"header":{"parameterUnit":"m.s-1","parameterCategory":1,"la1":30.2991,"la2":30.254,"lo1":-89.0895,"lo2":-89.0444,"dy":0.0017,"dx":0.0017,"nx":28,"ny":28,"refTime":"2024-02-11T09:00:00:Z","depth":0,"parameterNumber":2,"parameterNumberName":"U-component_of_WINDS"},"data":[0,0,0,0,0,0,0,0,0,0,0,0,0,0,0,0,0,0,0,0,0,0,0,0,0,0,0,0,0,0,0,0,0,0,0,0,0,0,0,0,0,0,0,0,0,0,0,0,0,0,0,0,0,0,0,0,0,0,-1.7168,-1.7167,0,-1.7096,-1.7095,-1.7095,-1.7024,-1.7023,-1.7022,-1.7021,-1.6949,-1.6948,-1.6947,0,0,0,0,0,0,0,0,0,0,0,0,0,-1.7245,-1.7244,-1.7168,-1.7167,-1.7166,-1.7096,-1.7095,-1.7094,-1.7024,-1.7023,-1.7022,-1.7021,-1.6949,-1.6948,-1.6947,0,0,0,0,0,0,0,0,0,0,0,0,0,-1.7196,-1.7244,-1.7168,-1.7122,-1.7118,-1.7097,-1.7095,-1.7094,-1.7024,-1.7023,-1.7022,-1.702,-1.695,-1.6948,-1.6947,-1.6965,0,0,-1.6942,-1.6941,0,0,0,0,0,0,0,0,-1.7199,-1.7194,-1.713,-1.7126,-1.712,-1.7068,-1.7096,-1.7051,-1.7025,-1.706,-1.7021,-1.702,-1.699,-1.6985,-1.6974,-1.6962,-1.6959,-1.6942,-1.6941,-1.694,-1.694,0,0,0,0,0,0,0,-1.7203,-1.7196,-1.7139,-1.7129,-1.7123,-1.7106,-1.7098,-1.7087,-1.7034,-1.7057,-1.7051,-1.7044,-1.6987,-1.6976,-1.6972,-1.6958,-1.6942,-1.6941,-1.694,-1.6939,-1.6957,-1.6958,0,0,0,0,0,0,-1.7213,-1.72,-1.7142,-1.7137,-1.7157,-1.7106,-1.7097,-1.7086,-1.7033,-1.7024,-1.7045,-1.7041,-1.698,-1.6974,-1.697,-1.6987,-1.694,-1.6939,-1.6938,-1.6956,-1.6957,-1.6959,0,0,0,0,0,0,-1.7215,-1.7208,-1.7145,-1.7167,-1.7158,-1.7106,-1.7095,-1.7085,-1.7074,-1.7025,-1.7015,-1.7044,-1.6978,-1.6972,-1.6967,-1.6984,-1.6938,-1.6937,-1.6954,-1.6956,-1.6958,-1.7024,0,0,0,0,0,0,-1.7217,-1.7209,-1.7215,-1.7168,-1.7157,-1.7143,-1.7096,-1.7085,-1.7072,-1.7066,-1.7021,-1.7012,-1.6977,-1.697,-1.6965,-1.6981,-1.6935,-1.6952,-1.6955,-1.6957,-1.702,-1.7028,-1.7035,0,0,0,0,0,-1.722,-1.7237,-1.7216,-1.7209,-1.7163,-1.7144,-1.7137,-1.7096,-1.7074,-1.7079,-1.7048,-1.7014,-1.6983,-1.697,-1.6964,-1.698,-1.6951,-1.6954,-1.6957,-1.7016,-1.7026,-1.7034,0,0,0,0,0,0,-1.7288,-1.723,-1.7206,-1.7207,-1.7181,-1.7132,-1.7138,-1.7107,-1.7087,-1.7082,-1.7032,-1.7022,-1.7023,-1.7001,-1.6987,-1.6995,-1.6962,-1.6965,-1.7009,-1.7018,-1.7025,-1.703,-1.6934,0,0,0,0,0,-1.7303,-1.7292,-1.7242,-1.7248,-1.7236,-1.719,-1.718,-1.715,-1.7121,-1.7109,-1.7077,-1.705,-1.7035,-1.7025,-1.7008,-1.7017,-1.7006,-1.7025,-1.7033,-1.7039,-1.7041,-1.7044,-1.7052,-1.6969,-1.6969,-1.6969,0,0,-1.7334,-1.7301,-1.7297,-1.7261,-1.7237,-1.7227,-1.718,-1.7172,-1.7164,-1.7108,-1.7101,-1.7077,-1.7044,-1.7046,-1.7045,-1.7028,-1.7062,-1.7043,-1.7048,-1.7047,-1.7049,-1.7056,-1.7063,-1.6972,-1.6971,-1.6971,0,0,-1.7385,-1.7359,-1.7361,-1.7338,-1.7302,-1.7272,-1.7273,-1.7228,-1.721,-1.7202,-1.716,-1.7151,-1.7125,-1.7103,-1.7089,-1.7134,-1.7102,-1.713,-1.7168,-1.7172,-1.7179,-1.7184,-1.72,-1.7206,-1.7133,-1.7133,-1.7133,0,-1.7427,-1.741,-1.7366,-1.736,-1.7345,-1.7295,-1.7297,-1.7277,-1.7238,-1.723,-1.7211,-1.7177,-1.7152,-1.7148,-1.7159,-1.715,-1.7149,-1.7134,-1.7181,-1.7187,-1.7191,-1.7206,-1.7212,-1.7136,-1.7136,-1.7135,-1.7135,0,-1.7465,-1.7454,-1.746,-1.7423,-1.741,-1.7408,-1.7364,-1.7356,-1.7328,-1.73,-1.7293,-1.7261,-1.7237,-1.7234,-1.7207,-1.7227,-1.7217,-1.7191,-1.7156,-1.7203,-1.7216,-1.7221,-1.7141,-1.714,-1.7139,-1.7138,0,0,-1.7555,-1.7494,-1.7497,-1.748,-1.7438,-1.7429,-1.7426,-1.7402,-1.7396,-1.7371,-1.7367,-1.7347,-1.7323,-1.7307,-1.7277,-1.728,-1.7318,-1.7253,-1.7252,-1.7266,-1.7339,-1.7358,-1.7365,-1.7298,-1.7298,-1.7299,-1.7341,0,-1.7598,-1.7587,-1.7548,-1.755,-1.7539,-1.7492,-1.7489,-1.7464,-1.7437,-1.7425,-1.7397,-1.7383,-1.7352,-1.7342,-1.7344,-1.7313,-1.7332,-1.731,-1.7293,-1.7293,-1.7302,-1.7372,-1.7392,-1.7434,-1.7346,-1.7347,-1.7348,0,-1.7646,-1.7625,-1.7626,-1.7584,-1.7578,-1.7576,-1.7552,-1.7541,-1.7511,-1.7492,-1.7475,-1.7442,-1.7436,-1.7406,-1.7398,-1.7384,-1.7375,-1.736,-1.736,-1.7356,-1.7323,-1.7369,-1.7446,-1.7452,-1.7355,-1.7354,-1.7354,0,-1.7711,-1.7683,-1.7679,-1.7666,-1.7618,-1.7618,-1.7598,-1.7567,-1.7556,-1.7535,-1.7527,-1.7506,-1.7494,-1.7479,-1.7442,-1.7423,-1.7438,-1.7404,-1.7422,-1.7423,-1.7427,-1.7427,-1.7502,-1.7423,-1.7423,-1.7423,-1.7423,0,-1.7763,-1.7766,-1.7708,-1.7706,-1.7707,-1.7663,-1.7666,-1.7642,-1.7615,-1.7608,-1.7566,-1.7561,-1.7512,-1.7501,-1.7472,-1.747,-1.7465,-1.745,-1.7442,-1.7453,-1.7455,-1.7446,-1.7442,-1.7424,-1.7424,-1.7424,-1.7423,0,-1.7836,-1.7797,-1.779,-1.7746,-1.7735,-1.7738,-1.77,-1.7696,-1.7668,-1.766,-1.7656,-1.7612,-1.7597,-1.7559,-1.7534,-1.7515,-1.7521,-1.7506,-1.753,-1.7525,-1.7545,-1.7544,-1.7617,-1.7624,-1.7541,-1.7542,-1.7543,0,-1.7871,-1.7871,-1.7827,-1.7819,-1.7801,-1.7788,-1.7776,-1.7733,-1.7723,-1.769,-1.7691,-1.7673,-1.7656,-1.7635,-1.7601,-1.7583,-1.7567,-1.7594,-1.7564,-1.7575,-1.7567,-1.7567,-1.7567,-1.76,-1.7602,-1.7602,-1.7603,0,-1.7937,-1.7918,-1.7902,-1.788,-1.7867,-1.7847,-1.7825,-1.7822,-1.7773,-1.7764,-1.7748,-1.7735,-1.771,-1.7693,-1.7669,-1.7649,-1.7619,-1.7613,-1.7616,-1.7627,-1.7641,-1.7633,-1.7548,-1.7611,-1.7611,-1.761,-1.761,-1.7609,-1.7991,-1.799,-1.7958,-1.7942,-1.7921,-1.7902,-1.7897,-1.7868,-1.7854,-1.783,-1.7806,-1.7793,-1.7765,-1.773,-1.7712,-1.7702,-1.7686,-1.7691,-1.7691,-1.7693,-1.7698,-1.7644,-1.7698,-1.7698,-1.7697,-1.7697,-1.7697,0,-1.8055,-1.8033,-1.8018,-1.7989,-1.7977,-1.7949,-1.7924,-1.7915,-1.7904,-1.788,-1.7864,-1.7847,-1.783,-1.7796,-1.7777,-1.7775,-1.7761,-1.7772,-1.7771,-1.7767,-1.7714,-1.7713,-1.7784,-1.7784,-1.7784,-1.7784,-1.7784,-1.7784,-1.8087,-1.8083,-1.806,-1.8046,-1.8024,-1.801,-1.7998,-1.7981,-1.7961,-1.7943,-1.7929,-1.7907,-1.7879,-1.7857,-1.7841,-1.7832,-1.7827,-1.7842,-1.7828,-1.7779,-1.7771,-1.7763,-1.7761,-1.7841,-1.7841,-1.7882,-1.7882,-1.7882]},{"header":{"parameterUnit":"m.s-1","parameterCategory":1,"la1":30.2991,"la2":30.254,"lo1":-89.0895,"lo2":-89.0444,"dy":0.0017,"dx":0.0017,"nx":28,"ny":28,"refTime":"2024-02-11T09:00:00:Z","depth":0,"parameterNumber":3,"parameterNumberName":"V-component_of_WINDS"},"data":[0,0,0,0,0,0,0,0,0,0,0,0,0,0,0,0,0,0,0,0,0,0,0,0,0,0,0,0,0,0,0,0,0,0,0,0,0,0,0,0,0,0,0,0,0,0,0,0,0,0,0,0,0,0,0,0,0,0,1.6995,1.6996,0,1.7061,1.7062,1.7063,1.7081,1.7081,1.7081,1.708,1.7145,1.7147,1.7149,0,0,0,0,0,0,0,0,0,0,0,0,0,1.6882,1.6884,1.6995,1.6996,1.6997,1.7061,1.7062,1.7063,1.7082,1.7081,1.7081,1.708,1.7144,1.7147,1.7149,0,0,0,0,0,0,0,0,0,0,0,0,0,1.6938,1.6885,1.6995,1.7014,1.7016,1.7061,1.7062,1.7063,1.7082,1.7081,1.7081,1.708,1.7143,1.7146,1.7149,1.7179,0,0,1.7159,1.716,0,0,0,0,0,0,0,0,1.6935,1.6942,1.701,1.7013,1.7016,1.7063,1.7046,1.7102,1.7082,1.7057,1.708,1.708,1.7118,1.7123,1.7136,1.7182,1.7185,1.7159,1.7161,1.7162,1.7163,0,0,0,0,0,0,0,1.6931,1.6939,1.7021,1.7011,1.7014,1.7018,1.7025,1.7056,1.7089,1.7059,1.706,1.7068,1.7119,1.7133,1.7138,1.7185,1.7159,1.7162,1.7164,1.7165,1.7258,1.7258,0,0,0,0,0,0,1.6924,1.6936,1.7019,1.7023,1.6973,1.7021,1.7029,1.7048,1.7089,1.7095,1.7068,1.7069,1.7128,1.7134,1.714,1.7178,1.7162,1.7165,1.7167,1.7257,1.7258,1.7259,0,0,0,0,0,0,1.6922,1.6932,1.7016,1.698,1.6991,1.7023,1.7044,1.705,1.7064,1.7096,1.7102,1.7077,1.7128,1.7136,1.7169,1.718,1.7166,1.7169,1.7256,1.7257,1.7258,1.7252,0,0,0,0,0,0,1.6918,1.6931,1.6943,1.698,1.6993,1.7045,1.7045,1.7051,1.707,1.707,1.7106,1.7111,1.7128,1.7164,1.7172,1.7184,1.7172,1.7256,1.7257,1.7258,1.7252,1.7253,1.7254,0,0,0,0,0,1.6914,1.6938,1.6944,1.6953,1.7009,1.7046,1.7053,1.7073,1.707,1.7083,1.7103,1.711,1.7177,1.7168,1.7177,1.719,1.7255,1.7256,1.7258,1.7251,1.7253,1.7254,0,0,0,0,0,0,1.69,1.6943,1.695,1.6987,1.7013,1.7049,1.7065,1.7074,1.7101,1.71,1.7123,1.713,1.7162,1.7179,1.7167,1.722,1.7216,1.7219,1.7208,1.721,1.7211,1.7207,1.7174,0,0,0,0,0,1.6902,1.6929,1.6964,1.6993,1.7006,1.7033,1.705,1.7063,1.709,1.7101,1.7124,1.715,1.7177,1.7194,1.722,1.7254,1.7261,1.7267,1.7268,1.7269,1.7271,1.729,1.7293,1.7263,1.7263,1.7263,0,0,1.6905,1.6931,1.6947,1.6991,1.7013,1.704,1.7043,1.7071,1.7091,1.7105,1.7139,1.7156,1.7186,1.7219,1.7235,1.7234,1.7281,1.727,1.7271,1.7273,1.7292,1.7295,1.7297,1.7264,1.7264,1.7264,0,0,1.6924,1.6947,1.6974,1.6995,1.7028,1.7046,1.7052,1.7087,1.71,1.7134,1.7145,1.7168,1.7214,1.7235,1.7251,1.7277,1.7285,1.7285,1.7291,1.7309,1.7312,1.7314,1.7323,1.7326,1.7287,1.7287,1.7287,0,1.6923,1.6965,1.6986,1.7014,1.7033,1.7047,1.7074,1.7094,1.7133,1.7145,1.7144,1.7201,1.7222,1.7261,1.7267,1.728,1.7287,1.7282,1.731,1.7312,1.7314,1.7324,1.7327,1.7287,1.7287,1.7287,1.7287,0,1.6963,1.6991,1.7009,1.7048,1.7068,1.7095,1.7119,1.7137,1.7147,1.7165,1.7198,1.7224,1.7256,1.7266,1.7276,1.7305,1.7304,1.7305,1.7303,1.7317,1.7326,1.733,1.7287,1.7287,1.7287,1.7287,0,0,1.6977,1.7026,1.7032,1.705,1.7087,1.7109,1.7136,1.7168,1.7183,1.7209,1.7232,1.727,1.7272,1.729,1.7302,1.7318,1.7337,1.7318,1.7319,1.7321,1.7371,1.737,1.7374,1.7341,1.7342,1.7343,1.7369,0,1.7001,1.7052,1.7071,1.7112,1.7138,1.7152,1.7175,1.72,1.7216,1.724,1.7258,1.7285,1.7285,1.7296,1.7312,1.7331,1.7347,1.733,1.7363,1.7364,1.7356,1.7379,1.7379,1.7402,1.7372,1.7373,1.7373,0,1.7037,1.7065,1.7109,1.7142,1.7154,1.7175,1.7206,1.7228,1.7256,1.7266,1.7287,1.7298,1.7326,1.732,1.7358,1.7345,1.7359,1.7371,1.7372,1.7377,1.737,1.7385,1.741,1.7414,1.7379,1.7379,1.7378,0,1.7044,1.7092,1.7125,1.7139,1.7179,1.7193,1.721,1.7237,1.7254,1.728,1.7292,1.732,1.7336,1.7357,1.7375,1.7369,1.7411,1.7407,1.7421,1.742,1.743,1.743,1.7458,1.7437,1.7437,1.7437,1.7437,0,1.7071,1.7097,1.7128,1.7148,1.7178,1.7198,1.7227,1.7244,1.7268,1.729,1.7303,1.7324,1.7346,1.7369,1.7383,1.7412,1.7419,1.7428,1.7432,1.7428,1.7427,1.7439,1.7438,1.7438,1.7438,1.7438,1.7438,0,1.7084,1.7106,1.7143,1.7177,1.7186,1.7206,1.7235,1.7254,1.7271,1.7299,1.7307,1.7333,1.7361,1.7381,1.7416,1.7426,1.7457,1.746,1.7449,1.7451,1.7464,1.7463,1.7502,1.7508,1.7482,1.7482,1.7482,0,1.71,1.7121,1.7158,1.7174,1.7192,1.7218,1.7236,1.7256,1.7275,1.7307,1.7322,1.7351,1.7376,1.742,1.7441,1.7468,1.7472,1.7484,1.7476,1.7472,1.7473,1.7472,1.7474,1.7486,1.7486,1.7486,1.7486,0,1.7127,1.7137,1.7163,1.7193,1.7215,1.724,1.7264,1.7276,1.73,1.732,1.735,1.7369,1.7405,1.7434,1.7463,1.7479,1.7486,1.7488,1.7493,1.749,1.7482,1.7487,1.7453,1.7487,1.7487,1.7487,1.7487,1.7487,1.7143,1.7162,1.7191,1.722,1.724,1.7263,1.7283,1.7302,1.7327,1.7359,1.7369,1.7399,1.7424,1.7464,1.7481,1.7504,1.7503,1.751,1.7512,1.7513,1.7514,1.7478,1.7509,1.7509,1.7509,1.7509,1.7509,0,1.7171,1.719,1.7216,1.7251,1.7273,1.7278,1.7305,1.7323,1.7351,1.7374,1.7398,1.7431,1.7458,1.7481,1.7509,1.7523,1.7528,1.753,1.753,1.7533,1.7512,1.7506,1.7526,1.7526,1.7526,1.7526,1.7526,1.7526,1.7188,1.7221,1.7234,1.7276,1.7295,1.7326,1.734,1.7361,1.738,1.7417,1.744,1.7455,1.7478,1.7507,1.7532,1.7538,1.7548,1.755,1.7557,1.7537,1.7535,1.7533,1.7527,1.7552,1.7552,1.7576,1.7576,1.7576]}]]